GW5770 Weather Reports


time (UTC)temp
F
wind
direction
speed
knots
gust
knots
rain 1hr
in
rain 24hr
in
rain mn
in
humidity
%
barometer
mb
20260510061354 54 182 0.0 0.0 0.00 0.00 0.00 97 1011.0
20260510060849 53 205 0.0 0.0 0.00 0.00 0.00 96 1011.1
20260510060348 53 220 0.0 0.0 0.00 0.00 0.00 96 1011.1
20260510055844 53 220 0.0 0.0 0.00 0.00 0.00 96 1011.0
20260510055343 53 220 0.0 0.0 0.00 0.00 0.00 96 1010.9
20260510054842 53 220 0.0 0.0 0.00 0.00 0.00 95 1011.2
20260510054338 54 219 0.0 0.0 0.00 0.00 0.00 95 1011.1
20260510053833 54 220 0.0 0.0 0.00 0.00 0.00 95 1011.0
20260510053328 55 220 0.0 0.0 0.00 0.00 0.00 95 1011.3
20260510052825 55 220 0.0 0.0 0.00 0.00 0.00 95 1011.2
20260510052321 55 187 0.0 0.0 0.00 0.00 0.00 95 1011.4
20260510051818 55 187 0.0 0.0 0.00 0.00 0.00 95 1011.1
20260510051314 55 187 0.0 0.0 0.00 0.00 0.00 95 1011.3
20260510050811 55 164 0.0 0.0 0.00 0.00 0.00 95 1011.0
20260510050308 55 247 0.0 0.0 0.00 0.00 0.00 94 1011.1
20260510045805 55 248 0.0 0.0 0.00 0.00 0.00 94 1011.1
20260510045305 55 193 0.0 0.0 0.00 0.00 0.00 94 1011.1
20260510044759 55 193 0.0 0.0 0.00 0.00 0.00 93 1010.9
20260510044256 56 193 0.0 0.0 0.00 0.00 0.00 93 1011.1
20260510043752 56 193 0.0 0.0 0.00 0.00 0.00 93 1010.9
20260510043248 56 193 0.0 0.0 0.00 0.00 0.00 94 1011.0
20260510042746 56 194 0.0 0.0 0.00 0.00 0.00 93 1011.0
20260510042241 56 194 0.0 0.0 0.00 0.00 0.00 93 1011.1
20260510041738 56 194 0.0 0.0 0.00 0.00 0.00 93 1011.2
20260510041235 56 194 0.0 0.0 0.00 0.00 0.00 93 1011.0
20260510040733 56 194 0.0 0.0 0.00 0.00 0.00 92 1011.0
20260510040230 56 194 0.0 0.0 0.00 0.00 0.00 92 1011.3
20260510035725 57 194 0.0 0.0 0.00 0.00 0.00 92 1011.0
20260510035221 57 194 0.0 0.0 0.00 0.00 0.00 91 1011.1
20260510034716 57 194 0.0 0.0 0.00 0.00 0.00 91 1011.0
20260510034215 57 194 0.0 0.0 0.00 0.00 0.00 90 1011.0
20260510033710 57 194 0.0 0.0 0.00 0.00 0.00 90 1010.9
20260510033209 57 194 0.0 0.0 0.00 0.00 0.00 89 1010.8
20260510032705 57 194 0.0 0.0 0.00 0.00 0.00 88 1010.8
20260510032200 58 194 0.0 0.0 0.00 0.00 0.00 88 1010.7
20260510031655 58 194 0.0 0.0 0.00 0.00 0.00 88 1011.0
20260510031152 59 194 0.0 0.0 0.00 0.00 0.00 87 1010.9
20260510030652 59 194 0.0 0.0 0.00 0.00 0.00 87 1010.8
20260510030150 59 194 0.0 0.0 0.00 0.00 0.00 87 1010.8
20260510025647 59 194 0.0 0.0 0.00 0.00 0.00 86 1011.0
20260510025144 59 194 0.0 0.0 0.00 0.00 0.00 86 1011.0
20260510024641 59 194 0.0 0.0 0.00 0.00 0.00 85 1010.8
20260510024137 60 194 0.0 0.0 0.00 0.00 0.00 84 1010.8
20260510023633 60 194 0.0 0.0 0.00 0.00 0.00 83 1010.8
20260510023131 60 194 0.0 0.0 0.00 0.00 0.00 83 1010.7
20260510022631 61 194 0.0 0.0 0.00 0.00 0.00 82 1010.7
20260510022126 61 194 0.0 0.0 0.00 0.00 0.00 82 1010.6
20260510021622 61 194 0.0 0.0 0.00 0.00 0.00 81 1010.5
20260510021120 61 194 0.0 0.0 0.00 0.00 0.00 81 1010.6
20260510020613 61 194 0.0 0.0 0.00 0.00 0.00 81 1010.6
20260510020109 61 194 0.0 0.0 0.00 0.00 0.00 80 1010.6
20260510015605 61 194 0.0 0.0 0.00 0.00 0.00 80 1010.5
20260510015102 61 194 0.0 0.0 0.00 0.00 0.00 80 1010.4
20260510014557 61 194 0.0 0.0 0.00 0.00 0.00 80 1010.4
20260510014056 61 193 0.0 0.0 0.00 0.00 0.00 80 1010.3
20260510013555 61 195 0.0 0.0 0.00 0.00 0.00 80 1010.4
20260510013052 61 221 0.0 0.0 0.00 0.00 0.00 79 1010.3
20260510012551 62 191 0.0 0.0 0.00 0.00 0.00 79 1009.9
20260510012048 62 191 0.0 0.0 0.00 0.00 0.00 78 1009.7
20260510011547 62 191 0.0 0.0 0.00 0.00 0.00 78 1009.9
20260510011043 62 191 0.0 0.0 0.00 0.00 0.00 78 1009.6
20260510010540 62 191 0.0 0.0 0.00 0.00 0.00 78 1009.8
20260510010037 62 191 0.0 0.0 0.00 0.00 0.00 77 1009.3
20260510005533 62 191 0.0 0.0 0.00 0.00 0.00 76 1009.7
20260510005031 63 191 0.0 0.0 0.00 0.00 0.00 75 1009.6
20260510004528 63 191 0.0 0.0 0.00 0.00 0.00 73 1009.7
20260510004026 64 191 0.0 0.0 0.00 0.00 0.00 73 1009.3
20260510003523 64 191 0.0 0.0 0.00 0.00 0.00 72 1009.5
20260510003018 65 191 0.0 0.0 0.00 0.00 0.00 70 1009.3
20260510002514 66 191 0.0 0.0 0.00 0.00 0.00 69 1009.4
20260510002011 66 191 0.0 0.0 0.00 0.00 0.00 68 1009.4
20260510001508 67 191 0.0 0.0 0.00 0.00 0.00 66 1009.4
20260510001006 68 191 0.0 0.0 0.00 0.00 0.00 65 1009.3
20260510000501 68 191 0.0 0.0 0.00 0.00 0.00 64 1009.2
20260509235958 69 191 0.0 0.0 0.00 0.00 0.00 63 1009.2
20260509235455 70 191 0.0 0.0 0.00 0.00 0.00 61 1009.1
20260509234951 71 191 0.0 0.0 0.00 0.00 0.00 59 1009.2
20260509234448 71 191 0.0 0.0 0.00 0.00 0.00 59 1009.3
20260509233946 72 191 0.0 0.0 0.00 0.00 0.00 57 1009.0
20260509233443 72 192 0.0 0.0 0.00 0.00 0.00 56 1009.1
20260509232939 73 192 0.0 0.0 0.00 0.00 0.00 55 1008.9
20260509232437 72 192 0.0 0.0 0.00 0.00 0.00 55 1009.1
20260509231932 72 192 0.0 0.0 0.00 0.00 0.00 55 1009.1
20260509231430 72 187 0.0 0.0 0.00 0.00 0.00 54 1009.0
20260509230928 72 186 0.0 0.9 0.00 0.00 0.00 54 1008.9
20260509230424 72 188 1.7 1.7 0.00 0.00 0.00 54 1009.2
20260509225920 73 161 1.7 1.7 0.00 0.00 0.00 54 1008.9
20260509225417 73 196 0.9 5.2 0.00 0.00 0.00 54 1008.9
20260509224913 73 192 0.0 1.7 0.00 0.00 0.00 53 1009.2
20260509224414 74 192 1.7 2.6 0.00 0.00 0.00 52 1008.9
20260509223911 74 199 0.0 1.7 0.00 0.00 0.00 54 1009.1
20260509223408 73 160 3.5 3.5 0.00 0.00 0.00 52 1009.1
20260509222905 73 168 1.7 6.1 0.00 0.00 0.00 53 1008.9
20260509222400 74 156 2.6 5.2 0.00 0.00 0.00 50 1008.8
20260509221855 75 199 2.6 3.5 0.00 0.00 0.00 49 1008.8
20260509221353 75 194 0.9 0.9 0.00 0.00 0.00 48 1009.0
20260509220849 75 228 0.0 1.7 0.00 0.00 0.00 48 1008.9
20260509220345 76 310 0.9 1.7 0.00 0.00 0.00 47 1009.0
20260509215840 77 299 0.9 3.5 0.00 0.00 0.00 46 1009.1
20260509215337 78 258 1.7 5.2 0.00 0.00 0.00 44 1008.8
20260509214834 78 347 0.9 1.7 0.00 0.00 0.00 46 1008.8
20260509214332 78 189 0.0 2.6 0.00 0.00 0.00 46 1008.8
20260509213829 76 236 0.9 1.7 0.00 0.00 0.00 49 1009.0
20260509213324 74 242 0.9 2.6 0.00 0.00 0.00 52 1008.8
20260509212822 74 211 0.9 1.7 0.00 0.00 0.00 50 1008.9
20260509212320 76 240 1.7 2.6 0.00 0.00 0.00 48 1009.0
20260509211815 78 249 0.9 1.7 0.00 0.00 0.00 46 1008.9
20260509211311 77 269 1.7 2.6 0.00 0.00 0.00 48 1009.0
20260509210808 75 279 0.0 0.9 0.00 0.00 0.00 49 1009.0
20260509210306 75 205 0.9 2.6 0.00 0.00 0.00 49 1008.9
20260509205804 77 237 0.9 3.5 0.00 0.00 0.00 48 1008.9
20260509205300 76 244 2.6 3.5 0.00 0.00 0.00 47 1008.9
20260509204756 75 131 2.6 5.2 0.00 0.00 0.00 49 1009.0
20260509204252 75 214 1.7 6.1 0.00 0.00 0.00 50 1009.0
20260509203748 75 203 2.6 2.6 0.00 0.00 0.00 49 1008.9
20260509203246 75 179 1.7 5.2 0.00 0.00 0.00 49 1008.9
20260509202742 74 207 0.9 2.6 0.00 0.00 0.00 52 1008.6
20260509202238 75 90 2.6 5.2 0.00 0.00 0.00 49 1008.6
20260509201733 75 132 0.9 2.6 0.00 0.00 0.00 50 1008.9
20260509201230 75 204 4.3 6.1 0.00 0.00 0.00 50 1008.8
20260509200726 74 225 0.9 2.6 0.00 0.00 0.00 52 1009.0
20260509200221 74 133 3.5 8.7 0.00 0.00 0.00 51 1009.0
20260509195717 74 171 2.6 7.0 0.00 0.00 0.00 52 1009.3
20260509195213 74 247 1.7 5.2 0.00 0.00 0.00 52 1009.2
20260509194713 74 213 0.0 3.5 0.00 0.00 0.00 52 1009.4
20260509194209 74 185 3.5 3.5 0.00 0.00 0.00 49 1009.3
20260509193706 73 216 1.7 2.6 0.00 0.00 0.00 56 1009.4
20260509193201 73 338 1.7 5.2 0.00 0.00 0.00 56 1009.5
20260509192657 73 157 1.7 5.2 0.00 0.00 0.00 54 1009.7
20260509192158 73 186 1.7 3.5 0.00 0.00 0.00 54 1009.9
20260509191653 74 219 2.6 2.6 0.00 0.00 0.00 54 1010.0
20260509191150 74 183 0.0 1.7 0.00 0.00 0.00 54 1010.0
20260509190646 72 255 0.9 0.9 0.00 0.00 0.00 57 1010.0
20260509190143 71 242 0.9 0.9 0.00 0.00 0.00 58 1009.9
20260509185641 72 138 3.5 7.0 0.00 0.00 0.00 55 1009.9
20260509185137 73 160 1.7 2.6 0.00 0.00 0.00 54 1010.0
20260509184635 71 241 1.7 1.7 0.00 0.00 0.00 56 1009.9
20260509184131 71 165 0.9 1.7 0.00 0.00 0.00 57 1009.9
20260509183628 72 177 3.5 7.0 0.00 0.00 0.00 52 1010.0
20260509183123 72 217 0.0 0.9 0.00 0.00 0.00 55 1010.1
20260509182619 72 243 0.9 0.9 0.00 0.00 0.00 54 1010.2
20260509182117 71 220 0.0 0.0 0.00 0.00 0.00 55 1010.2
20260509181615 71 143 0.9 2.6 0.00 0.00 0.00 55 1010.4
20260509181111 70 219 0.0 0.9 0.00 0.00 0.00 56 1010.4
20260509180608 69 236 0.9 3.5 0.00 0.00 0.00 57 1010.6
20260509180105 69 184 0.0 1.7 0.00 0.00 0.00 59 1010.8
20260509175601 68 238 2.6 3.5 0.00 0.00 0.00 58 1010.7
20260509175058 69 234 0.9 0.9 0.00 0.00 0.00 59 1010.9
20260509174554 69 228 0.0 0.9 0.00 0.00 0.00 56 1010.9
20260509174049 70 211 0.0 2.6 0.00 0.00 0.00 56 1010.8
20260509173549 70 196 0.0 1.7 0.00 0.00 0.00 55 1010.9
20260509173046 71 203 1.7 3.5 0.00 0.00 0.00 54 1011.1
20260509172543 72 257 0.9 1.7 0.00 0.00 0.00 54 1010.9
20260509172039 72 211 1.7 2.6 0.00 0.00 0.00 55 1010.9
20260509171535 71 229 0.9 1.7 0.00 0.00 0.00 54 1011.1
20260509171032 72 261 1.7 3.5 0.00 0.00 0.00 52 1011.0
20260509170527 71 227 0.0 0.9 0.00 0.00 0.00 54 1011.1
20260509170023 70 241 0.9 1.7 0.00 0.00 0.00 55 1011.2
20260509165522 69 208 0.9 1.7 0.00 0.00 0.00 56 1011.1
20260509165018 69 223 2.6 3.5 0.00 0.00 0.00 54 1011.1
20260509164514 69 229 0.9 3.5 0.00 0.00 0.00 56 1011.3
20260509164010 69 202 3.5 6.1 0.00 0.00 0.00 55 1011.3
20260509163508 69 138 2.6 6.1 0.00 0.00 0.00 55 1011.3
20260509163008 71 223 0.0 3.5 0.00 0.00 0.00 55 1011.2
20260509162506 71 202 0.0 0.9 0.00 0.00 0.00 55 1011.1
20260509162001 71 213 0.9 5.2 0.00 0.00 0.00 55 1011.1
20260509161458 72 160 1.7 3.5 0.00 0.00 0.00 53 1011.4
20260509160953 72 227 0.9 2.6 0.00 0.00 0.00 53 1011.1
20260509160450 71 194 0.9 2.6 0.00 0.00 0.00 53 1011.2
20260509155949 70 210 0.0 0.9 0.00 0.00 0.00 55 1011.3
20260509155447 70 178 0.9 2.6 0.00 0.00 0.00 55 1011.3
20260509154943 71 211 2.6 7.8 0.00 0.00 0.00 54 1011.3
20260509154439 71 268 0.9 7.0 0.00 0.00 0.00 55 1011.6
20260509153937 69 208 0.9 3.5 0.00 0.00 0.00 55 1011.5
20260509153433 71 164 5.2 7.0 0.00 0.00 0.00 52 1011.5
20260509152931 71 225 0.0 3.5 0.00 0.00 0.00 54 1011.5
20260509152426 70 196 0.9 2.6 0.00 0.00 0.00 56 1011.6
20260509151924 70 183 0.0 1.7 0.00 0.00 0.00 55 1011.5
20260509151419 69 216 0.9 2.6 0.00 0.00 0.00 58 1011.6
20260509150918 68 188 3.5 6.1 0.00 0.00 0.00 56 1011.7
20260509150415 68 169 2.6 2.6 0.00 0.00 0.00 55 1011.7
20260509145914 68 154 2.6 2.6 0.00 0.00 0.00 56 1011.7
20260509145413 67 106 1.7 2.6 0.00 0.00 0.00 57 1011.7
20260509144909 66 297 1.7 1.7 0.00 0.00 0.00 60 1012.0
20260509144406 66 172 0.9 1.7 0.00 0.00 0.00 60 1011.9
20260509143903 66 185 0.9 1.7 0.00 0.00 0.00 61 1012.0
20260509143401 64 179 0.9 1.7 0.00 0.00 0.00 63 1012.2
20260509142857 62 162 0.9 6.1 0.00 0.00 0.00 63 1012.3
20260509142353 63 137 3.5 5.2 0.00 0.00 0.00 63 1012.3
20260509141849 63 189 2.6 3.5 0.00 0.00 0.00 63 1012.3
20260509141346 63 171 3.5 5.2 0.00 0.00 0.00 62 1012.3
20260509140843 62 169 0.9 2.6 0.00 0.00 0.00 62 1012.4
20260509140340 63 217 0.0 0.9 0.00 0.00 0.00 62 1012.2
20260509135838 62 226 0.0 0.9 0.00 0.00 0.00 62 1012.2
20260509135335 62 225 0.0 0.9 0.00 0.00 0.00 63 1012.3
20260509134832 61 209 0.0 3.5 0.00 0.00 0.00 62 1012.2
20260509134329 61 152 0.0 3.5 0.00 0.00 0.00 63 1012.2
20260509133826 62 165 1.7 2.6 0.00 0.00 0.00 62 1012.4
20260509133323 62 240 1.7 1.7 0.00 0.00 0.00 63 1012.3
20260509132822 61 252 0.0 0.9 0.00 0.00 0.00 62 1012.4
20260509132320 61 164 0.9 1.7 0.00 0.00 0.00 63 1012.4
20260509131816 61 217 0.0 0.9 0.00 0.00 0.00 65 1012.4
20260509131313 61 219 0.9 0.9 0.00 0.00 0.00 65 1012.5
20260509130809 61 236 0.0 0.9 0.00 0.00 0.00 65 1012.5
20260509130305 61 277 0.9 1.7 0.00 0.00 0.00 65 1012.4
20260509125802 61 207 0.0 1.7 0.00 0.00 0.00 64 1012.4
20260509125258 60 186 0.0 0.9 0.00 0.00 0.00 66 1012.2
20260509124755 60 179 1.7 2.6 0.00 0.00 0.00 65 1012.1
20260509124251 60 190 2.6 3.5 0.00 0.00 0.00 65 1012.2
20260509123750 60 178 1.7 2.6 0.00 0.00 0.00 64 1012.1
20260509123247 60 179 0.9 1.7 0.00 0.00 0.00 65 1012.2
20260509122742 60 153 3.5 5.2 0.00 0.00 0.00 64 1012.2
20260509122239 60 187 0.0 0.9 0.00 0.00 0.00 65 1012.0
20260509121736 60 335 1.7 6.1 0.00 0.00 0.00 64 1012.1
20260509121233 60 167 1.7 8.7 0.00 0.00 0.00 63 1012.3
20260509120732 60 204 0.9 1.7 0.00 0.00 0.00 64 1012.1
20260509120229 60 219 1.7 2.6 0.00 0.00 0.00 63 1012.2
20260509115727 60 183 0.9 1.7 0.00 0.00 0.00 63 1012.0
20260509115224 59 198 0.9 1.7 0.00 0.00 0.00 63 1012.2
20260509114722 59 225 1.7 1.7 0.00 0.00 0.00 62 1012.1
20260509114221 59 157 1.7 2.6 0.00 0.00 0.00 63 1012.2
20260509113719 59 197 0.9 1.7 0.00 0.00 0.00 63 1012.1
20260509113216 59 210 1.7 6.1 0.00 0.00 0.00 63 1012.0
20260509112712 59 207 0.9 1.7 0.00 0.00 0.00 63 1012.2
20260509112209 58 202 1.7 6.1 0.00 0.00 0.00 61 1011.9
20260509111706 58 219 0.0 0.9 0.00 0.00 0.00 61 1012.0
20260509111203 58 185 0.0 6.1 0.00 0.00 0.00 60 1011.9
20260509110701 58 186 0.9 5.2 0.00 0.00 0.00 59 1012.1
20260509110157 58 217 1.7 2.6 0.00 0.00 0.00 58 1012.0
20260509105655 58 221 0.9 2.6 0.00 0.00 0.00 58 1011.9
20260509105152 58 222 1.7 2.6 0.00 0.00 0.00 57 1011.7
20260509104649 58 172 0.0 2.6 0.00 0.00 0.00 56 1011.8
20260509104146 58 201 0.9 2.6 0.00 0.00 0.00 55 1011.7
20260509103644 58 220 0.0 0.9 0.00 0.00 0.00 56 1011.9
20260509103142 58 175 0.0 1.7 0.00 0.00 0.00 56 1011.8
20260509102639 58 217 0.9 0.9 0.00 0.00 0.00 55 1011.6
20260509102136 58 178 0.9 0.9 0.00 0.00 0.00 55 1011.5
20260509101632 58 231 0.0 0.9 0.00 0.00 0.00 56 1011.5
20260509101129 59 202 0.0 1.7 0.00 0.00 0.00 55 1011.7
20260509100627 58 181 0.0 0.9 0.00 0.00 0.00 54 1011.7
20260509100124 58 202 0.0 0.9 0.00 0.00 0.00 55 1011.7
20260509095620 58 188 0.9 1.7 0.00 0.00 0.00 55 1011.6
20260509095118 58 205 0.9 0.9 0.00 0.00 0.00 55 1011.3
20260509094613 59 205 0.0 0.9 0.00 0.00 0.00 55 1011.5
20260509094111 59 202 0.0 1.7 0.00 0.00 0.00 54 1011.4
20260509093610 59 197 0.0 0.9 0.00 0.00 0.00 55 1011.4
20260509093106 59 189 1.7 2.6 0.00 0.00 0.00 53 1011.7
20260509092604 59 194 0.9 2.6 0.00 0.00 0.00 54 1011.8
20260509092102 59 199 0.0 0.9 0.00 0.00 0.00 55 1011.6
20260509091600 58 215 0.0 1.7 0.00 0.00 0.00 56 1011.7
20260509091056 58 213 0.9 1.7 0.00 0.00 0.00 55 1011.4
20260509090553 58 187 0.9 1.7 0.00 0.00 0.00 55 1011.7
20260509090051 58 225 0.9 1.7 0.00 0.00 0.00 55 1011.6
20260509085548 58 236 0.9 3.5 0.00 0.00 0.00 55 1011.7
20260509085044 59 237 0.9 1.7 0.00 0.00 0.00 55 1011.9
20260509084541 59 239 1.7 5.2 0.00 0.00 0.00 54 1011.7
20260509084038 59 204 0.0 1.7 0.00 0.00 0.00 55 1011.8
20260509083536 59 219 3.5 5.2 0.00 0.00 0.00 54 1011.9
20260509083032 59 224 0.9 0.9 0.00 0.00 0.00 54 1011.9
20260509082530 59 230 0.9 2.6 0.00 0.00 0.00 54 1012.0
20260509082027 59 236 0.9 3.5 0.00 0.00 0.00 54 1012.0
20260509081524 59 214 1.7 2.6 0.00 0.00 0.00 54 1012.2
20260509081021 59 219 0.9 3.5 0.00 0.00 0.00 54 1012.1
20260509080519 59 231 1.7 2.6 0.00 0.00 0.00 55 1012.2
20260509080017 59 190 3.5 6.1 0.00 0.00 0.00 54 1012.3
20260509075513 59 176 1.7 3.5 0.00 0.00 0.00 54 1012.5
20260509075011 59 338 1.7 2.6 0.00 0.00 0.00 54 1012.3
20260509074508 59 188 1.7 3.5 0.00 0.00 0.00 54 1012.6
20260509074005 59 220 1.7 3.5 0.00 0.00 0.00 54 1012.3
20260509073501 59 207 1.7 3.5 0.00 0.00 0.00 54 1012.5
20260509072958 59 208 1.7 6.1 0.00 0.00 0.00 53 1012.4
20260509072455 59 21 1.7 3.5 0.00 0.00 0.00 54 1012.4
20260509071951 59 164 1.7 5.2 0.00 0.00 0.00 54 1012.5
20260509071448 58 246 1.7 3.5 0.00 0.00 0.00 54 1012.5
20260509070946 59 209 0.9 1.7 0.00 0.00 0.00 54 1012.4
20260509070442 59 204 1.7 7.8 0.00 0.00 0.00 53 1012.4
20260509065937 59 221 1.7 5.2 0.00 0.00 0.00 53 1012.6
20260509065434 59 230 0.9 2.6 0.00 0.00 0.00 54 1012.5
20260509064930 59 217 1.7 3.5 0.00 0.00 0.00 54 1012.4
20260509064428 59 199 1.7 2.6 0.00 0.00 0.00 53 1012.6
20260509063926 59 169 2.6 3.5 0.00 0.00 0.00 53 1012.5
20260509063421 59 256 0.9 6.1 0.00 0.00 0.00 53 1012.6
20260509062919 59 207 2.6 2.6 0.00 0.00 0.00 53 1012.7
20260509062416 59 150 2.6 5.2 0.00 0.00 0.00 53 1012.7
20260509061913 59 218 0.9 1.7 0.00 0.00 0.00 53 1012.9
20260509061411 59 215 0.0 3.5 0.00 0.00 0.00 53 1012.9